TimeCST,TemperatureF,Dew PointF,Humidity,Sea Level PressureIn,VisibilityMPH,Wind Direction,Wind SpeedMPH,Gust SpeedMPH,PrecipitationIn,Events,Conditions,WindDirDegrees,DateUTC
12:55 AM,33.3,28.2,82,30.21,10.0,NE,5.8,-,N/A,,Clear,50,2013-01-26 06:55:00
1:55 AM,30.9,26.8,85,30.21,10.0,NNE,4.6,-,N/A,,Clear,20,2013-01-26 07:55:00
2:55 AM,29.1,26.1,88,30.20,10.0,NNE,5.8,-,N/A,,Clear,20,2013-01-26 08:55:00
3:55 AM,27.9,25.0,89,30.20,10.0,NNE,4.6,-,N/A,,Clear,20,2013-01-26 09:55:00
4:55 AM,29.5,25.3,85,30.19,10.0,Calm,Calm,-,N/A,,Clear,0,2013-01-26 10:55:00
5:55 AM,28.0,24.3,86,30.19,10.0,NNW,3.5,-,N/A,,Clear,340,2013-01-26 11:55:00
6:55 AM,25.7,23.2,90,30.20,10.0,North,4.6,-,N/A,,Clear,10,2013-01-26 12:55:00
7:55 AM,26.8,23.5,88,30.20,10.0,North,4.6,-,N/A,,Clear,10,2013-01-26 13:55:00
8:55 AM,32.4,28.8,87,30.22,10.0,North,3.5,-,N/A,,Clear,10,2013-01-26 14:55:00
9:55 AM,39.9,32.5,75,30.22,10.0,SE,3.5,-,N/A,,Clear,130,2013-01-26 15:55:00
10:55 AM,43.7,33.6,68,30.22,10.0,South,6.9,-,N/A,,Clear,190,2013-01-26 16:55:00
11:55 AM,46.9,35.1,63,30.18,10.0,SSE,5.8,-,N/A,,Clear,160,2013-01-26 17:55:00
12:55 PM,50.4,35.8,57,30.16,10.0,SSW,8.1,-,N/A,,Clear,200,2013-01-26 18:55:00
1:55 PM,52.7,36.1,53,30.10,10.0,SE,8.1,-,N/A,,Clear,140,2013-01-26 19:55:00
2:55 PM,53.2,36.3,53,30.10,10.0,SSE,12.7,-,N/A,,Partly Cloudy,160,2013-01-26 20:55:00
3:55 PM,53.6,37.0,53,30.08,10.0,SSE,11.5,-,N/A,,Partly Cloudy,160,2013-01-26 21:55:00
4:55 PM,55.4,37.4,51,30.06,10.0,SSE,12.7,-,N/A,,Partly Cloudy,150,2013-01-26 22:55:00
5:55 PM,53.2,37.6,55,30.05,10.0,SE,9.2,-,N/A,,Mostly Cloudy,130,2013-01-26 23:55:00
6:55 PM,51.1,37.9,61,30.07,10.0,SE,11.5,-,N/A,,Mostly Cloudy,130,2013-01-27 00:55:00
7:55 PM,50.0,38.7,65,30.06,10.0,ESE,15.0,-,N/A,,Scattered Clouds,110,2013-01-27 01:55:00
8:55 PM,46.8,43.0,87,30.06,10.0,SE,9.2,-,N/A,,Partly Cloudy,130,2013-01-27 02:55:00
9:55 PM,46.4,44.1,92,30.06,10.0,ESE,8.1,-,N/A,,Scattered Clouds,120,2013-01-27 03:55:00
10:55 PM,46.2,45.1,96,30.03,10.0,ESE,12.7,-,N/A,,Scattered Clouds,120,2013-01-27 04:55:00
11:55 PM,47.3,45.7,94,30.00,9.0,SE,16.1,-,N/A,,Clear,130,2013-01-27 05:55:00